�������l�o���
Date,Time,MP-1(��Sv/h),MP-2(��Sv/h),MP-3(��Sv/h),MP-4(��Sv/h),MP-5(��Sv/h),MP-6(��Sv/h),MP-7(��Sv/h),MP-8(��Sv/h),����,����(m/s),���J
2022/04/07,00:00,0.570,0.846,0.542,1.028,0.731,0.346,0.598,0.565,�k�k��,7.6,��
2022/04/07,00:10,0.570,0.846,0.544,1.029,0.730,0.345,0.598,0.565,�k,6.9,��
2022/04/07,00:20,0.571,0.846,0.543,1.030,0.728,0.345,0.597,0.565,�k,6.2,��
2022/04/07,00:30,0.572,0.846,0.544,1.029,0.728,0.344,0.597,0.566,�k,5.3,��
2022/04/07,00:40,0.571,0.845,0.544,1.029,0.730,0.346,0.598,0.564,�k�k��,7.0,��
2022/04/07,00:50,0.570,0.845,0.542,1.031,0.729,0.345,0.597,0.565,�k,6.8,��
2022/04/07,01:00,0.571,0.844,0.542,1.030,0.728,0.345,0.598,0.564,�k,6.5,��
2022/04/07,01:10,0.571,0.846,0.543,1.031,0.728,0.342,0.598,0.565,�k,6.9,��
2022/04/07,01:20,0.570,0.846,0.543,1.029,0.730,0.345,0.597,0.565,�k,6.7,��
2022/04/07,01:30,0.572,0.847,0.542,1.031,0.728,0.345,0.597,0.563,�k,5.5,��
2022/04/07,01:40,0.571,0.846,0.543,1.028,0.729,0.345,0.599,0.565,�k,5.1,��
2022/04/07,01:50,0.571,0.848,0.544,1.030,0.729,0.344,0.598,0.566,�k,5.5,��
2022/04/07,02:00,0.571,0.846,0.544,1.027,0.729,0.345,0.598,0.565,�k,6.2,��
2022/04/07,02:10,0.571,0.848,0.544,1.028,0.728,0.346,0.598,0.565,�k,6.2,��
2022/04/07,02:20,0.572,0.846,0.542,1.029,0.730,0.344,0.598,0.565,�k,7.0,��
2022/04/07,02:30,0.570,0.846,0.541,1.029,0.730,0.344,0.599,0.564,�k,7.2,��
2022/04/07,02:40,0.570,0.845,0.544,1.029,0.729,0.344,0.598,0.566,�k,7.3,��
2022/04/07,02:50,0.570,0.845,0.543,1.029,0.730,0.346,0.599,0.565,�k,7.6,��
2022/04/07,03:00,0.570,0.847,0.543,1.030,0.728,0.347,0.598,0.565,�k,7.0,��
2022/04/07,03:10,0.572,0.845,0.543,1.030,0.728,0.343,0.598,0.566,�k,7.1,��
2022/04/07,03:20,0.571,0.846,0.543,1.030,0.730,0.346,0.598,0.564,�k,6.5,��
2022/04/07,03:30,0.570,0.846,0.543,1.031,0.729,0.344,0.600,0.565,�k,6.9,��
2022/04/07,03:40,0.572,0.847,0.544,1.032,0.730,0.344,0.599,0.565,�k,7.1,��
2022/04/07,03:50,0.571,0.847,0.543,1.029,0.730,0.345,0.598,0.565,�k,7.2,��
2022/04/07,04:00,0.569,0.846,0.541,1.031,0.731,0.344,0.599,0.566,�k�k��,7.8,��
2022/04/07,04:10,0.570,0.846,0.543,1.033,0.729,0.344,0.599,0.565,�k�k��,7.3,��
2022/04/07,04:20,0.573,0.847,0.542,1.029,0.728,0.344,0.597,0.565,�k�k��,7.4,��
2022/04/07,04:30,0.570,0.847,0.542,1.030,0.729,0.345,0.599,0.565,�k,6.1,��
2022/04/07,04:40,0.571,0.847,0.544,1.031,0.728,0.344,0.598,0.566,�k�k��,6.4,��
2022/04/07,04:50,0.572,0.844,0.543,1.030,0.731,0.344,0.597,0.564,�k,5.7,��
2022/04/07,05:00,0.572,0.845,0.544,1.030,0.729,0.345,0.599,0.566,�k�k��,5.0,��
2022/04/07,05:10,0.570,0.848,0.542,1.029,0.728,0.345,0.598,0.564,�k,5.3,��
2022/04/07,05:20,0.570,0.847,0.545,1.034,0.730,0.343,0.598,0.564,�k�k��,5.5,��
2022/04/07,05:30,0.571,0.847,0.541,1.033,0.728,0.344,0.598,0.565,�k�k��,4.8,��
2022/04/07,05:40,0.572,0.846,0.545,1.030,0.728,0.343,0.597,0.565,�k�k��,4.8,��
2022/04/07,05:50,0.571,0.846,0.545,1.030,0.730,0.344,0.598,0.565,�k�k��,4.7,��
2022/04/07,06:00,0.572,0.845,0.542,1.030,0.729,0.345,0.597,0.565,�k�k��,5.2,��
2022/04/07,06:10,0.571,0.847,0.544,1.030,0.729,0.345,0.599,0.565,�k�k��,4.7,��
2022/04/07,06:20,0.571,0.845,0.543,1.032,0.731,0.346,0.597,0.565,�k�k��,3.9,��
2022/04/07,06:30,0.571,0.846,0.544,1.032,0.730,0.344,0.598,0.566,�k,3.4,��
2022/04/07,06:40,0.570,0.848,0.544,1.030,0.730,0.344,0.597,0.565,�k,3.8,��
2022/04/07,06:50,0.572,0.848,0.545,1.032,0.731,0.345,0.597,0.567,�k,3.6,��
2022/04/07,07:00,0.571,0.847,0.544,1.030,0.731,0.345,0.598,0.565,�k,3.0,��
2022/04/07,07:10,0.571,0.848,0.543,1.030,0.730,0.344,0.598,0.565,�k�k��,2.5,��
2022/04/07,07:20,0.570,0.848,0.543,1.033,0.733,0.343,0.597,0.564,�k�k��,3.5,��
2022/04/07,07:30,0.570,0.849,0.542,1.032,0.731,0.343,0.597,0.564,�k�k��,3.7,��
2022/04/07,07:40,0.572,0.848,0.544,1.033,0.730,0.345,0.597,0.565,�k��,3.3,��
2022/04/07,07:50,0.571,0.848,0.547,1.032,0.733,0.344,0.597,0.566,�k��,3.6,��
2022/04/07,08:00,0.570,0.845,0.543,1.033,0.730,0.344,0.597,0.567,�k��,3.6,��
2022/04/07,08:10,0.574,0.846,0.547,1.029,0.730,0.345,0.598,0.565,�k��,3.5,��
2022/04/07,08:20,0.572,0.848,0.543,1.033,0.729,0.343,0.597,0.568,�k��,4.2,��
2022/04/07,08:30,0.572,0.847,0.542,1.033,0.731,0.344,0.595,0.567,�k�k��,3.6,��
2022/04/07,08:40,0.572,0.844,0.544,1.033,0.731,0.345,0.596,0.566,�k��,3.4,��
2022/04/07,08:50,0.572,0.845,0.549,1.031,0.730,0.342,0.596,0.564,�k�k��,3.6,��
2022/04/07,09:00,0.572,0.844,0.543,1.033,0.732,0.344,0.596,0.564,�k��,3.8,��
2022/04/07,09:10,0.572,0.844,0.544,1.032,0.731,0.343,0.596,0.563,�k�k��,3.8,��
2022/04/07,09:20,0.573,0.844,0.548,1.033,0.731,0.343,0.595,0.564,�k�k��,4.2,��
2022/04/07,09:30,0.571,0.842,0.544,1.032,0.730,0.343,0.597,0.563,�k��,4.0,��
2022/04/07,09:40,0.571,0.844,0.543,1.032,0.731,0.344,0.597,0.564,�k�k��,4.0,��
2022/04/07,09:50,0.572,0.847,0.545,1.032,0.730,0.343,0.597,0.563,�k�k��,4.3,��
2022/04/07,10:00,0.572,0.843,0.544,1.032,0.730,0.343,0.598,0.565,�k��,3.9,��
2022/04/07,10:10,0.571,0.845,0.544,1.034,0.726,0.344,0.597,0.563,�k��,4.0,��
2022/04/07,10:20,0.571,0.847,0.545,1.033,0.730,0.344,0.595,0.563,�k��,4.3,��
2022/04/07,10:30,0.572,0.846,0.542,1.035,0.730,0.342,0.597,0.565,�k��,4.3,��
2022/04/07,10:40,0.570,0.843,0.542,1.034,0.730,0.342,0.597,0.564,�k��,3.7,��
2022/04/07,10:50,0.571,0.846,0.542,1.033,0.730,0.342,0.598,0.565,���k��,4.0,��
2022/04/07,11:00,0.571,0.846,0.544,1.033,0.732,0.343,0.599,0.564,�k��,4.0,��
2022/04/07,11:10,0.572,0.847,0.542,1.034,0.729,0.343,0.598,0.566,�k��,3.6,��
2022/04/07,11:20,0.574,0.846,0.544,1.035,0.730,0.343,0.598,0.565,�k��,3.9,��
2022/04/07,11:30,0.570,0.844,0.544,1.034,0.730,0.342,0.597,0.564,���k��,3.3,��
2022/04/07,11:40,0.570,0.846,0.543,1.034,0.730,0.343,0.598,0.563,�k��,3.6,��
2022/04/07,11:50,0.574,0.847,0.543,1.034,0.725,0.343,0.599,0.565,�k��,3.9,��
2022/04/07,12:00,0.570,0.846,0.544,1.036,0.731,0.343,0.599,0.564,���k��,3.6,��
2022/04/07,12:10,0.572,0.848,0.543,1.034,0.731,0.341,0.598,0.565,�k��,3.6,��
2022/04/07,12:20,0.571,0.849,0.544,1.034,0.731,0.345,0.597,0.563,�k��,3.5,��
2022/04/07,12:30,0.571,0.850,0.545,1.035,0.732,0.346,0.598,0.565,���k��,3.2,��
2022/04/07,12:40,0.572,0.848,0.545,1.033,0.733,0.346,0.598,0.565,�k��,2.9,��
2022/04/07,12:50,0.573,0.849,0.543,1.036,0.732,0.347,0.599,0.564,�k��,3.3,��
2022/04/07,13:00,0.573,0.848,0.544,1.034,0.733,0.347,0.598,0.566,�k��,3.7,��
2022/04/07,13:10,0.574,0.849,0.544,1.034,0.731,0.345,0.598,0.564,�k��,3.1,��
2022/04/07,13:20,0.573,0.849,0.544,1.036,0.733,0.347,0.598,0.563,���k��,3.1,��
2022/04/07,13:30,0.573,0.849,0.543,1.035,0.732,0.347,0.599,0.564,��,3.4,��
2022/04/07,13:40,0.575,0.848,0.545,1.036,0.732,0.346,0.599,0.564,���k��,3.1,��
2022/04/07,13:50,0.573,0.850,0.546,1.037,0.735,0.346,0.600,0.564,���k��,3.5,��
2022/04/07,14:00,0.574,0.850,0.545,1.035,0.733,0.345,0.598,0.565,���k��,3.7,��
2022/04/07,14:10,0.574,0.848,0.544,1.038,0.733,0.346,0.599,0.565,���k��,3.9,��
2022/04/07,14:20,0.572,0.848,0.543,1.037,0.733,0.346,0.598,0.566,��,3.9,��
2022/04/07,14:30,0.574,0.851,0.545,1.036,0.733,0.347,0.600,0.565,���k��,4.1,��
2022/04/07,14:40,0.574,0.852,0.547,1.036,0.734,0.347,0.599,0.565,��,3.9,��
2022/04/07,14:50,0.572,0.851,0.546,1.037,0.733,0.346,0.600,0.564,��,2.9,��
2022/04/07,15:00,0.575,0.852,0.544,1.036,0.735,0.346,0.600,0.564,���k��,3.9,��
2022/04/07,15:10,0.573,0.851,0.545,1.036,0.734,0.348,0.600,0.566,���k��,3.9,��
2022/04/07,15:20,0.573,0.851,0.544,1.037,0.734,0.347,0.599,0.565,��,3.5,��
2022/04/07,15:30,0.574,0.851,0.544,1.037,0.734,0.347,0.601,0.565,��,3.1,��
2022/04/07,15:40,0.574,0.852,0.547,1.037,0.734,0.346,0.600,0.565,��,2.3,��
2022/04/07,15:50,0.575,0.855,0.545,1.038,0.736,0.347,0.600,0.565,��,2.9,��
2022/04/07,16:00,0.573,0.856,0.545,1.037,0.735,0.347,0.599,0.566,��,2.8,��
2022/04/07,16:10,0.574,0.856,0.546,1.039,0.732,0.347,0.602,0.564,��,2.3,��
2022/04/07,16:20,0.573,0.856,0.546,1.037,0.733,0.346,0.599,0.565,���k��,2.5,��
2022/04/07,16:30,0.574,0.855,0.546,1.037,0.736,0.347,0.602,0.566,���k��,2.3,��
2022/04/07,16:40,0.574,0.853,0.545,1.037,0.733,0.347,0.600,0.567,���k��,2.5,��
2022/04/07,16:50,0.576,0.856,0.548,1.036,0.732,0.347,0.599,0.568,���k��,2.0,��
2022/04/07,17:00,0.577,0.856,0.548,1.036,0.735,0.348,0.599,0.569,��,2.3,��
2022/04/07,17:10,0.576,0.854,0.545,1.037,0.735,0.347,0.599,0.567,���쓌,2.0,��
2022/04/07,17:20,0.578,0.855,0.548,1.036,0.735,0.347,0.600,0.569,��,2.3,��
2022/04/07,17:30,0.577,0.856,0.547,1.037,0.737,0.347,0.599,0.569,���k��,1.7,��
2022/04/07,17:40,0.576,0.855,0.548,1.036,0.738,0.347,0.599,0.568,���k��,1.1,��
2022/04/07,17:50,0.575,0.857,0.547,1.037,0.736,0.347,0.600,0.568,�k�k��,0.9,��
2022/04/07,18:00,0.578,0.856,0.548,1.037,0.736,0.347,0.600,0.568,��,0.9,��
2022/04/07,18:10,0.576,0.854,0.547,1.037,0.738,0.346,0.600,0.567,-,CALM,��
2022/04/07,18:20,0.574,0.854,0.547,1.037,0.738,0.348,0.600,0.569,�k�k��,1.1,��
2022/04/07,18:30,0.576,0.854,0.546,1.037,0.736,0.347,0.601,0.567,���k��,1.5,��
2022/04/07,18:40,0.576,0.855,0.547,1.038,0.736,0.348,0.602,0.568,���k��,1.5,��
2022/04/07,18:50,0.577,0.855,0.549,1.037,0.739,0.348,0.601,0.568,�k�k��,2.3,��
2022/04/07,19:00,0.576,0.856,0.547,1.037,0.737,0.346,0.601,0.568,�k�k��,1.9,��
2022/04/07,19:10,0.577,0.856,0.548,1.037,0.737,0.347,0.599,0.568,�k�k��,3.1,��
2022/04/07,19:20,0.577,0.854,0.547,1.039,0.737,0.346,0.602,0.569,�k�k��,3.5,��
2022/04/07,19:30,0.574,0.857,0.548,1.038,0.739,0.345,0.600,0.570,�k,3.7,�L
2022/04/07,19:40,0.576,0.854,0.548,1.039,0.739,0.348,0.601,0.569,�k,4.2,�L
2022/04/07,19:50,0.576,0.854,0.549,1.039,0.739,0.346,0.601,0.568,�k,5.1,�L
2022/04/07,20:00,0.576,0.858,0.547,1.038,0.739,0.347,0.601,0.569,�k,4.1,�L
2022/04/07,20:10,0.578,0.857,0.547,1.038,0.737,0.347,0.602,0.568,�k,3.7,�L
2022/04/07,20:20,0.576,0.854,0.548,1.039,0.737,0.347,0.601,0.569,�k,2.3,�L
2022/04/07,20:30,0.576,0.857,0.548,1.038,0.737,0.346,0.603,0.568,�k�k��,1.7,�L
2022/04/07,20:40,0.575,0.855,0.548,1.038,0.738,0.347,0.602,0.568,�k,3.1,��
2022/04/07,20:50,0.577,0.853,0.548,1.039,0.738,0.348,0.602,0.569,�k,3.4,��
2022/04/07,21:00,0.574,0.855,0.548,1.038,0.736,0.347,0.604,0.568,�k�k��,3.6,��
2022/04/07,21:10,0.574,0.856,0.550,1.037,0.738,0.346,0.602,0.569,�k�k��,4.1,��
2022/04/07,21:20,0.576,0.856,0.547,1.037,0.739,0.347,0.602,0.569,�k�k��,4.2,��
2022/04/07,21:30,0.576,0.856,0.546,1.038,0.737,0.346,0.603,0.568,�k,2.9,��
2022/04/07,21:40,0.576,0.854,0.548,1.039,0.735,0.348,0.602,0.569,�k�k��,4.8,��
2022/04/07,21:50,0.575,0.852,0.547,1.039,0.736,0.347,0.603,0.567,���쓌,0.8,�L
2022/04/07,22:00,0.570,0.844,0.545,1.033,0.729,0.347,0.598,0.566,-,CALM,�L
2022/04/07,22:10,0.570,0.841,0.543,1.030,0.727,0.349,0.596,0.565,�k,3.9,�L
2022/04/07,22:20,0.570,0.841,0.545,1.028,0.726,0.349,0.596,0.566,�k�k��,3.4,�L
2022/04/07,22:30,0.571,0.839,0.545,1.029,0.726,0.351,0.597,0.565,�k��,2.3,�L
2022/04/07,22:40,0.573,0.838,0.546,1.029,0.729,0.352,0.596,0.566,�k�k��,1.5,�L
2022/04/07,22:50,0.574,0.840,0.546,1.029,0.729,0.352,0.598,0.565,�k�k��,2.5,�L
2022/04/07,23:00,0.574,0.841,0.547,1.029,0.730,0.352,0.597,0.566,�k,2.3,�L
2022/04/07,23:10,0.569,0.840,0.546,1.029,0.728,0.350,0.600,0.564,�k�k��,3.3,�L
2022/04/07,23:20,0.571,0.838,0.545,1.026,0.726,0.351,0.597,0.566,�k�k��,4.8,�L
2022/04/07,23:30,0.572,0.840,0.543,1.026,0.726,0.349,0.598,0.566,�k,3.2,�L
2022/04/07,23:40,0.570,0.838,0.541,1.025,0.725,0.348,0.596,0.565,�k,3.1,�L
2022/04/07,23:50,0.568,0.837,0.541,1.022,0.725,0.348,0.596,0.565,�k,2.3,��
